{"data":{"norad_id":65056,"epoch":"2026-09-20T19:45:27.510912Z","epoch_age_seconds":92928,"freshness":"FRESH","line1":"1 65056U 25165A   26263.82323508  .00020131  00000+0  62336-3 0  9990","line2":"2 65056  97.2835 335.0167 0002184 119.3940 240.7521 15.33486913 64177","mean_motion":15.33486913,"eccentricity":0.0002184,"inclination_deg":97.2835,"raan_deg":335.0167,"arg_perigee_deg":119.394,"mean_anomaly_deg":240.7521,"bstar":0.00062336,"rev_number":6417,"period_min":93.903638028634,"perigee_km":463.9238412033,"apogee_km":466.91310623422,"semimajor_km":6843.5554737188,"source":"CELESTRAK","updated_at":"2026-09-21T09:00:35.497684Z"}}